QPF
0.02 0.02 0.02 0.02 0.01 0.01 0.01 0.01 0.01 0.02 0.02 0.02 0.01 0.01 0.00 0.00 0.00 0.00 0.00 0.00 0.00 0.00 0.00 0.00 0.00 0.00 0.00 0.00 0.00 0.00 0.00 0.00 0.00 0.00 0.00 0.00 0.00 0.00 0.00 0.00 0.00 0.00 0.00 0.00
0.02 0.01 0.02 0.01 0.01 0.01 0.01 0.01 0.01 0.02 0.02 0.01 0.02 0.01 0.00 0.00 0.00 0.00 0.00 0.00 0.00 0.00 0.00 0.00 0.00 0.00 0.00 0.00 0.00 0.00 0.00 0.00 0.00 0.00 0.00 0.00 0.00 0.00 0.00 0.00 0.00 0.00 0.00 0.00
0.03 0.02 0.02 0.02 0.02 0.01 0.01 0.01 0.01 0.01 0.01 0.01 0.01 0.01 0.00 0.00 0.00 0.00 0.00 0.00 0.00 0.00 0.00 0.00 0.00 0.00 0.00 0.00 0.00 0.00 0.00 0.00 0.00 0.00 0.00 0.00 0.00 0.00 0.00 0.00 0.00 0.00 0.00 0.00
0.02 0.03 0.02 0.02 0.02 0.02 0.02 0.02 0.03 0.02 0.01 0.01 0.01 0.01 0.01 0.00 0.01 0.01 0.01 0.01 0.00 0.00 0.00 0.00 0.00 0.00 0.00 0.00 0.00 0.00 0.00 0.00 0.00 0.00 0.00 0.00 0.00 0.00 0.00 0.00 0.00 0.00 0.00 0.00
0.02 0.03 0.02 0.03 0.04 0.04 0.04 0.03 0.04 0.04 0.01 0.01 0.01 0.01 0.01 0.01 0.01 0.02 0.02 0.03 0.02 0.01 0.01 0.02 0.01 0.00 0.00 0.00 0.00 0.00 0.00 0.00 0.00 0.00 0.00 0.00 0.00 0.00 0.00 0.00 0.00 0.00 0.00 0.00
0.06 0.05 0.04 0.04 0.04 0.05 0.05 0.04 0.02 0.03 0.02 0.01 0.01 0.01 0.01 0.01 0.01 0.01 0.02 0.04 0.04 0.02 0.02 0.02 0.01 0.00 0.00 0.00 0.00 0.00 0.00 0.00 0.00 0.00 0.00 0.00 0.00 0.00 0.00 0.00 0.00 0.00 0.00 0.00
0.06 0.08 0.08 0.06 0.04 0.04 0.07 0.08 0.06 0.07 0.06 0.03 0.02 0.01 0.01 0.01 0.01 0.00 0.00 0.01 0.01 0.01 0.01 0.00 0.00 0.00 0.00 0.00 0.00 0.00 0.00 0.00 0.00 0.00 0.00 0.00 0.00 0.00 0.00 0.00 0.00 0.00 0.00 0.00
0.14 0.13 0.10 0.08 0.06 0.06 0.11 0.13 0.12 0.09 0.06 0.03 0.02 0.02 0.01 0.00 0.00 0.00 0.00 0.00 0.00 0.00 0.00 0.00 0.00 0.00 0.00 0.00 0.00 0.00 0.00 0.00 0.00 0.00 0.00 0.00 0.00 0.00 0.00 0.00 0.00 0.00 0.00 0.00
0.15 0.13 0.09 0.09 0.11 0.10 0.13 0.16 0.13 0.09 0.06 0.03 0.02 0.02 0.01 0.01 0.01 0.01 0.00 0.00 0.00 0.00 0.00 0.01 0.01 0.00 0.00 0.00 0.00 0.00 0.00 0.00 0.00 0.00 0.00 0.00 0.00 0.00 0.00 0.00 0.00 0.00 0.00 0.00
0.16 0.19 0.16 0.12 0.12 0.15 0.12 0.10 0.09 0.07 0.06 0.04 0.03 0.04 0.03 0.02 0.02 0.02 0.02 0.01 0.01 0.01 0.01 0.01 0.01 0.00 0.00 0.00 0.00 0.00 0.00 0.00 0.00 0.00 0.00 0.00 0.00 0.00 0.00 0.00 0.00 0.00 0.00 0.00
0.15 0.15 0.16 0.15 0.18 0.17 0.12 0.09 0.08 0.05 0.05 0.04 0.04 0.03 0.02 0.02 0.02 0.02 0.02 0.02 0.02 0.01 0.01 0.01 0.01 0.01 0.01 0.01 0.01 0.01 0.01 0.01 0.01 0.01 0.01 0.00 0.00 0.00 0.00 0.00 0.00 0.00 0.00 0.00
0.14 0.14 0.19 0.21 0.16 0.11 0.07 0.05 0.05 0.04 0.02 0.02 0.02 0.02 0.02 0.01 0.01 0.02 0.02 0.02 0.02 0.02 0.02 0.02 0.02 0.02 0.02 0.02 0.02 0.02 0.01 0.01 0.01 0.01 0.00 0.00 0.00 0.00 0.00 0.00 0.00 0.00 0.00 0.01
0.12 0.14 0.15 0.12 0.10 0.08 0.06 0.04 0.04 0.02 0.01 0.01 0.01 0.01 0.01 0.01 0.01 0.03 0.02 0.01 0.01 0.01 0.01 0.01 0.01 0.02 0.02 0.02 0.02 0.01 0.01 0.01 0.01 0.00 0.00 0.00 0.00 0.00 0.00 0.00 0.00 0.01 0.01 0.01
0.09 0.12 0.11 0.07 0.06 0.05 0.03 0.04 0.03 0.01 0.01 0.01 0.00 0.01 0.01 0.01 0.01 0.02 0.01 0.01 0.01 0.01 0.01 0.01 0.01 0.01 0.01 0.01 0.02 0.02 0.01 0.01 0.01 0.01 0.01 0.01 0.01 0.01 0.00 0.00 0.00 0.01 0.01 0.01
0.09 0.09 0.11 0.09 0.07 0.07 0.04 0.04 0.04 0.02 0.01 0.00 0.01 0.01 0.01 0.02 0.03 0.02 0.01 0.01 0.01 0.01 0.01 0.01 0.01 0.01 0.01 0.01 0.01 0.01 0.01 0.01 0.02 0.03 0.03 0.02 0.01 0.01 0.01 0.01 0.01 0.01 0.01 0.01
0.13 0.12 0.09 0.05 0.03 0.02 0.02 0.02 0.02 0.01 0.01 0.00 0.01 0.01 0.01 0.01 0.01 0.02 0.03 0.03 0.02 0.03 0.02 0.02 0.02 0.02 0.02 0.02 0.03 0.03 0.03 0.03 0.04 0.04 0.03 0.02 0.01 0.01 0.01 0.01 0.01 0.01 0.01 0.01
0.17 0.14 0.08 0.05 0.03 0.02 0.02 0.01 0.01 0.01 0.00 0.00 0.00 0.00 0.00 0.00 0.01 0.01 0.01 0.01 0.01 0.02 0.02 0.02 0.02 0.02 0.02 0.02 0.03 0.03 0.03 0.02 0.03 0.02 0.02 0.02 0.01 0.02 0.02 0.02 0.01 0.02 0.02 0.02
0.15 0.10 0.06 0.04 0.04 0.03 0.02 0.01 0.01 0.00 0.00 0.00 0.00 0.00 0.00 0.00 0.00 0.00 0.01 0.01 0.01 0.01 0.01 0.01 0.01 0.01 0.01 0.02 0.02 0.01 0.01 0.01 0.01 0.02 0.02 0.02 0.02 0.02 0.01 0.02 0.02 0.02 0.03 0.03
0.07 0.04 0.02 0.01 0.01 0.01 0.00 0.00 0.00 0.00 0.00 0.00 0.00 0.00 0.00 0.00 0.00 0.00 0.00 0.00 0.00 0.01 0.01 0.01 0.01 0.02 0.01 0.02 0.01 0.01 0.01 0.01 0.01 0.01 0.01 0.02 0.02 0.01 0.02 0.02 0.03 0.03 0.03 0.03
0.03 0.01 0.01 0.00 0.00 0.00 0.00 0.00 0.00 0.00 0.00 0.00 0.00 0.00 0.00 0.00 0.00 0.00 0.00 0.01 0.00 0.00 0.00 0.00 0.00 0.00 0.01 0.01 0.01 0.01 0.01 0.01 0.01 0.01 0.01 0.01 0.02 0.02 0.02 0.03 0.04 0.04 0.04 0.04
0.01 0.01 0.00 0.01 0.01 0.00 0.00 0.00 0.00 0.00 0.00 0.00 0.00 0.00 0.00 0.00 0.00 0.00 0.00 0.00 0.00 0.00 0.00 0.00 0.00 0.00 0.00 0.00 0.00 0.00 0.00 0.00 0.01 0.01 0.01 0.02 0.02 0.03 0.03 0.04 0.04 0.04 0.03 0.04
0.01 0.00 0.00 0.00 0.00 0.00 0.00 0.00 0.00 0.00 0.00 0.00 0.00 0.00 0.00 0.00 0.00 0.00 0.00 0.00 0.00 0.00 0.00 0.00 0.00 0.00 0.00 0.00 0.00 0.00 0.00 0.01 0.01 0.01 0.01 0.01 0.02 0.03 0.03 0.04 0.05 0.05 0.05 0.05
0.00 0.00 0.00 0.00 0.00 0.00 0.00 0.00 0.00 0.00 0.00 0.00 0.00 0.00 0.00 0.00 0.00 0.00 0.00 0.00 0.00 0.00 0.00 0.00 0.00 0.00 0.00 0.00 0.00 0.00 0.01 0.01 0.01 0.01 0.01 0.02 0.02 0.04 0.05 0.06 0.07 0.07 0.06 0.05
0.00 0.00 0.00 0.00 0.00 0.00 0.00 0.00 0.00 0.00 0.00 0.00 0.00 0.00 0.00 0.00 0.00 0.00 0.00 0.00 0.00 0.00 0.00 0.00 0.00 0.00 0.00 0.00 0.00 0.00 0.01 0.01 0.01 0.02 0.02 0.02 0.03 0.05 0.08 0.09 0.08 0.07 0.06 0.06
0.00 0.00 0.00 0.00 0.00 0.00 0.00 0.00 0.00 0.00 0.00 0.00 0.00 0.00 0.00 0.00 0.00 0.00 0.00 0.00 0.00 0.00 0.00 0.00 0.00 0.00 0.00 0.00 0.00 0.00 0.01 0.01 0.01 0.01 0.02 0.03 0.04 0.05 0.07 0.08 0.06 0.06 0.07 0.07
0.00 0.00 0.00 0.00 0.00 0.00 0.00 0.00 0.00 0.00 0.00 0.00 0.00 0.00 0.00 0.00 0.00 0.00 0.00 0.00 0.00 0.00 0.00 0.00 0.00 0.00 0.00 0.00 0.01 0.01 0.01 0.01 0.02 0.02 0.02 0.03 0.04 0.05 0.07 0.08 0.08 0.06 0.06 0.06
0.00 0.00 0.00 0.00 0.00 0.00 0.00 0.00 0.00 0.00 0.00 0.00 0.00 0.00 0.00 0.00 0.00 0.00 0.00 0.00 0.00 0.00 0.00 0.00 0.00 0.00 0.01 0.01 0.01 0.01 0.01 0.02 0.02 0.02 0.02 0.03 0.04 0.05 0.07 0.08 0.08 0.06 0.05 0.04
MSLP
1010.83 1010.95 1011.09 1011.27 1011.45 1011.60 1011.68 1011.63 1011.45 1011.12 1010.67 1010.16 1009.66 1009.23 1008.95 1008.85 1008.95 1009.24 1009.70 1010.25 1010.85 1011.44 1011.97 1012.42 1012.78 1013.06 1013.27 1013.42 1013.55 1013.67 1013.79 1013.91 1014.04 1014.16 1014.28 1014.40 1014.50 1014.59 1014.67 1014.73 1014.78 1014.80 1014.80 1014.78
1010.88 1011.01 1011.10 1011.15 1011.16 1011.12 1011.02 1010.83 1010.55 1010.18 1009.77 1009.33 1008.93 1008.61 1008.42 1008.39 1008.53 1008.82 1009.24 1009.75 1010.30 1010.85 1011.36 1011.81 1012.19 1012.49 1012.74 1012.94 1013.10 1013.24 1013.37 1013.49 1013.61 1013.73 1013.84 1013.95 1014.06 1014.16 1014.24 1014.31 1014.36 1014.37 1014.36 1014.32
1011.14 1011.29 1011.33 1011.28 1011.16 1010.98 1010.73 1010.42 1010.06 1009.66 1009.25 1008.85 1008.51 1008.24 1008.10 1008.08 1008.19 1008.43 1008.78 1009.20 1009.68 1010.16 1010.63 1011.08 1011.47 1011.82 1012.12 1012.37 1012.59 1012.77 1012.93 1013.06 1013.19 1013.31 1013.42 1013.53 1013.64 1013.74 1013.82 1013.88 1013.92 1013.93 1013.90 1013.84
1011.60 1011.74 1011.75 1011.63 1011.42 1011.13 1010.77 1010.38 1009.95 1009.51 1009.09 1008.70 1008.36 1008.10 1007.94 1007.88 1007.92 1008.07 1008.32 1008.63 1009.01 1009.42 1009.85 1010.28 1010.70 1011.09 1011.44 1011.76 1012.04 1012.28 1012.48 1012.66 1012.80 1012.93 1013.05 1013.16 1013.27 1013.36 1013.44 1013.49 1013.51 1013.49 1013.44 1013.35
1012.13 1012.26 1012.23 1012.07 1011.79 1011.43 1011.01 1010.56 1010.09 1009.62 1009.18 1008.77 1008.41 1008.12 1007.91 1007.77 1007.72 1007.75 1007.88 1008.08 1008.35 1008.69 1009.07 1009.49 1009.92 1010.35 1010.77 1011.16 1011.50 1011.81 1012.07 1012.29 1012.47 1012.62 1012.75 1012.87 1012.97 1013.05 1013.10 1013.13 1013.13 1013.08 1012.99 1012.87
1012.57 1012.66 1012.60 1012.41 1012.10 1011.72 1011.28 1010.81 1010.32 1009.85 1009.39 1008.96 1008.58 1008.24 1007.95 1007.73 1007.57 1007.50 1007.50 1007.59 1007.77 1008.03 1008.37 1008.77 1009.21 1009.67 1010.14 1010.59 1011.01 1011.38 1011.70 1011.97 1012.19 1012.38 1012.52 1012.64 1012.73 1012.79 1012.82 1012.82 1012.77 1012.68 1012.56 1012.40
1012.74 1012.78 1012.70 1012.50 1012.21 1011.85 1011.43 1010.98 1010.52 1010.07 1009.62 1009.19 1008.78 1008.40 1008.06 1007.76 1007.52 1007.34 1007.24 1007.24 1007.33 1007.53 1007.81 1008.18 1008.62 1009.10 1009.60 1010.09 1010.56 1010.99 1011.36 1011.68 1011.95 1012.16 1012.32 1012.44 1012.53 1012.56 1012.56 1012.51 1012.42 1012.28 1012.11 1011.92
1012.53 1012.54 1012.46 1012.29 1012.04 1011.73 1011.39 1011.01 1010.61 1010.21 1009.80 1009.40 1008.99 1008.60 1008.22 1007.88 1007.57 1007.32 1007.15 1007.07 1007.09 1007.22 1007.45 1007.78 1008.19 1008.66 1009.16 1009.67 1010.16 1010.62 1011.03 1011.39 1011.69 1011.92 1012.10 1012.23 1012.29 1012.30 1012.26 1012.17 1012.02 1011.84 1011.63 1011.41
1011.94 1011.94 1011.88 1011.77 1011.60 1011.39 1011.15 1010.88 1010.59 1010.27 1009.94 1009.59 1009.22 1008.85 1008.47 1008.11 1007.77 1007.49 1007.26 1007.13 1007.09 1007.15 1007.32 1007.59 1007.94 1008.36 1008.83 1009.31 1009.80 1010.26 1010.68 1011.05 1011.36 1011.62 1011.80 1011.92 1011.97 1011.95 1011.87 1011.73 1011.54 1011.32 1011.07 1010.83
1011.09 1011.11 1011.09 1011.05 1010.99 1010.91 1010.80 1010.66 1010.49 1010.29 1010.06 1009.79 1009.49 1009.16 1008.82 1008.48 1008.15 1007.85 1007.60 1007.42 1007.33 1007.32 1007.42 1007.60 1007.87 1008.21 1008.59 1009.01 1009.45 1009.87 1010.27 1010.63 1010.95 1011.20 1011.38 1011.49 1011.52 1011.47 1011.36 1011.18 1010.95 1010.69 1010.42 1010.17
1010.15 1010.20 1010.25 1010.31 1010.36 1010.41 1010.43 1010.43 1010.40 1010.32 1010.20 1010.03 1009.82 1009.56 1009.28 1008.98 1008.68 1008.39 1008.14 1007.93 1007.79 1007.71 1007.72 1007.80 1007.95 1008.18 1008.45 1008.77 1009.11 1009.47 1009.81 1010.14 1010.43 1010.66 1010.83 1010.92 1010.93 1010.86 1010.71 1010.50 1010.23 1009.95 1009.68 1009.43
1009.33 1009.42 1009.54 1009.69 1009.85 1010.02 1010.17 1010.30 1010.38 1010.42 1010.41 1010.34 1010.21 1010.04 1009.83 1009.59 1009.33 1009.07 1008.82 1008.60 1008.41 1008.27 1008.18 1008.14 1008.17 1008.25 1008.39 1008.58 1008.81 1009.07 1009.34 1009.60 1009.85 1010.05 1010.19 1010.26 1010.25 1010.15 1009.97 1009.73 1009.45 1009.15 1008.87 1008.63
1008.77 1008.91 1009.09 1009.32 1009.56 1009.82 1010.07 1010.29 1010.48 1010.61 1010.68 1010.69 1010.65 1010.55 1010.41 1010.24 1010.03 1009.81 1009.58 1009.35 1009.12 1008.92 1008.73 1008.58 1008.48 1008.42 1008.42 1008.47 1008.57 1008.72 1008.90 1009.09 1009.28 1009.44 1009.54 1009.58 1009.54 1009.42 1009.21 1008.95 1008.65 1008.34 1008.05 1007.82
1008.55 1008.73 1008.95 1009.22 1009.53 1009.84 1010.15 1010.43 1010.67 1010.86 1010.99 1011.07 1011.09 1011.06 1010.98 1010.86 1010.71 1010.53 1010.32 1010.09 1009.84 1009.58 1009.32 1009.07 1008.84 1008.66 1008.52 1008.44 1008.43 1008.47 1008.55 1008.67 1008.79 1008.90 1008.96 1008.97 1008.89 1008.74 1008.51 1008.22 1007.90 1007.57 1007.27 1007.03
1008.64 1008.83 1009.08 1009.37 1009.70 1010.03 1010.36 1010.66 1010.93 1011.14 1011.30 1011.41 1011.47 1011.49 1011.46 1011.39 1011.29 1011.14 1010.96 1010.73 1010.47 1010.18 1009.86 1009.54 1009.23 1008.94 1008.70 1008.51 1008.39 1008.34 1008.34 1008.38 1008.44 1008.50 1008.51 1008.48 1008.36 1008.18 1007.91 1007.60 1007.25 1006.89 1006.57 1006.31
1008.95 1009.15 1009.40 1009.69 1010.01 1010.33 1010.65 1010.94 1011.20 1011.41 1011.58 1011.70 1011.77 1011.81 1011.81 1011.78 1011.71 1011.60 1011.44 1011.22 1010.96 1010.65 1010.31 1009.94 1009.58 1009.23 1008.91 1008.65 1008.46 1008.34 1008.27 1008.25 1008.25 1008.25 1008.21 1008.13 1007.97 1007.74 1007.44 1007.08 1006.70 1006.31 1005.96 1005.67
1009.37 1009.56 1009.80 1010.08 1010.37 1010.67 1010.96 1011.22 1011.45 1011.64 1011.78 1011.89 1011.97 1012.01 1012.03 1012.01 1011.96 1011.86 1011.72 1011.52 1011.27 1010.97 1010.62 1010.24 1009.85 1009.47 1009.13 1008.83 1008.59 1008.42 1008.30 1008.23 1008.18 1008.12 1008.04 1007.89 1007.69 1007.41 1007.06 1006.66 1006.23 1005.80 1005.41 1005.07
1009.79 1009.98 1010.20 1010.45 1010.71 1010.98 1011.23 1011.46 1011.65 1011.80 1011.92 1012.01 1012.07 1012.10 1012.10 1012.08 1012.03 1011.94 1011.81 1011.62 1011.38 1011.09 1010.75 1010.39 1010.01 1009.63 1009.28 1008.98 1008.73 1008.53 1008.38 1008.26 1008.16 1008.05 1007.91 1007.71 1007.44 1007.10 1006.70 1006.25 1005.77 1005.31 1004.87 1004.50
1010.14 1010.32 1010.53 1010.76 1011.00 1011.24 1011.46 1011.65 1011.81 1011.93 1012.01 1012.06 1012.09 1012.09 1012.06 1012.02 1011.95 1011.85 1011.71 1011.52 1011.29 1011.02 1010.70 1010.36 1010.01 1009.66 1009.34 1009.05 1008.80 1008.59 1008.42 1008.27 1008.12 1007.95 1007.74 1007.47 1007.14 1006.74 1006.29 1005.79 1005.27 1004.77 1004.30 1003.90
1010.41 1010.59 1010.79 1011.01 1011.23 1011.44 1011.64 1011.80 1011.93 1012.01 1012.06 1012.07 1012.05 1012.01 1011.95 1011.86 1011.76 1011.62 1011.46 1011.27 1011.04 1010.78 1010.49 1010.18 1009.86 1009.55 1009.26 1008.99 1008.76 1008.55 1008.35 1008.17 1007.97 1007.74 1007.46 1007.13 1006.73 1006.27 1005.76 1005.22 1004.67 1004.15 1003.67 1003.26
1010.61 1010.78 1010.98 1011.19 1011.40 1011.60 1011.78 1011.92 1012.02 1012.07 1012.08 1012.05 1011.99 1011.89 1011.77 1011.64 1011.48 1011.31 1011.11 1010.90 1010.66 1010.40 1010.14 1009.86 1009.58 1009.31 1009.06 1008.82 1008.59 1008.37 1008.16 1007.93 1007.68 1007.39 1007.04 1006.64 1006.17 1005.66 1005.10 1004.53 1003.97 1003.44 1002.97 1002.58
1010.75 1010.92 1011.12 1011.32 1011.52 1011.71 1011.87 1011.99 1012.07 1012.09 1012.06 1011.99 1011.88 1011.73 1011.55 1011.36 1011.15 1010.93 1010.70 1010.45 1010.21 1009.96 1009.71 1009.46 1009.22 1008.98 1008.76 1008.54 1008.32 1008.10 1007.86 1007.59 1007.28 1006.92 1006.50 1006.03 1005.50 1004.93 1004.35 1003.76 1003.19 1002.68 1002.24 1001.88
1010.85 1011.02 1011.21 1011.41 1011.60 1011.77 1011.91 1012.01 1012.06 1012.05 1011.99 1011.88 1011.72 1011.52 1011.29 1011.04 1010.79 1010.52 1010.26 1010.00 1009.74 1009.50 1009.27 1009.04 1008.83 1008.63 1008.43 1008.22 1008.01 1007.77 1007.49 1007.18 1006.81 1006.39 1005.90 1005.36 1004.78 1004.18 1003.57 1002.97 1002.43 1001.94 1001.54 1001.24
1010.92 1011.08 1011.26 1011.44 1011.62 1011.77 1011.89 1011.96 1011.98 1011.94 1011.84 1011.69 1011.49 1011.25 1010.99 1010.70 1010.41 1010.12 1009.84 1009.57 1009.32 1009.08 1008.87 1008.68 1008.49 1008.31 1008.13 1007.94 1007.72 1007.46 1007.15 1006.79 1006.36 1005.88 1005.34 1004.74 1004.12 1003.49 1002.87 1002.28 1001.76 1001.31 1000.97 1000.73
1010.97 1011.12 1011.27 1011.43 1011.58 1011.70 1011.79 1011.83 1011.81 1011.74 1011.62 1011.44 1011.21 1010.95 1010.66 1010.36 1010.06 1009.76 1009.48 1009.22 1008.98 1008.77 1008.58 1008.42 1008.26 1008.10 1007.93 1007.74 1007.51 1007.23 1006.90 1006.49 1006.02 1005.48 1004.89 1004.26 1003.61 1002.96 1002.34 1001.77 1001.28 1000.89 1000.60 1000.43
1011.00 1011.13 1011.26 1011.39 1011.50 1011.58 1011.63 1011.63 1011.59 1011.48 1011.34 1011.14 1010.90 1010.64 1010.35 1010.05 1009.76 1009.48 1009.22 1008.98 1008.78 1008.60 1008.44 1008.30 1008.17 1008.03 1007.88 1007.68 1007.44 1007.14 1006.78 1006.34 1005.83 1005.26 1004.64 1003.98 1003.32 1002.67 1002.07 1001.53 1001.08 1000.74 1000.51 1000.39
1011.05 1011.16 1011.26 1011.35 1011.42 1011.45 1011.46 1011.42 1011.33 1011.21 1011.04 1010.84 1010.61 1010.35 1010.09 1009.82 1009.56 1009.32 1009.10 1008.90 1008.73 1008.59 1008.47 1008.35 1008.24 1008.12 1007.96 1007.77 1007.52 1007.20 1006.81 1006.35 1005.82 1005.23 1004.60 1003.95 1003.29 1002.67 1002.09 1001.59 1001.19 1000.89 1000.71 1000.64
Thickness
5746 5756 5754 5752 5755 5756 5746 5736 5728 5736 5742 5756 5763 5765 5767 5766 5762 5758 5754 5751 5749 5745 5741 5737 5734 5730 5728 5724 5720 5717 5711 5706 5702 5698 5694 5690 5685 5681 5677 5672 5668 5663 5658 5654
5742 5754 5754 5752 5758 5759 5757 5755 5749 5750 5750 5769 5772 5770 5767 5765 5762 5758 5755 5753 5751 5747 5742 5738 5735 5731 5727 5722 5719 5715 5710 5705 5701 5696 5691 5687 5683 5678 5673 5668 5664 5659 5654 5650
5722 5739 5741 5732 5749 5754 5755 5757 5755 5745 5755 5767 5764 5765 5765 5765 5764 5762 5759 5756 5751 5748 5744 5740 5737 5733 5726 5722 5718 5713 5708 5703 5699 5694 5689 5685 5680 5675 5669 5665 5660 5655 5650 5645
5715 5720 5710 5737 5762 5764 5758 5758 5761 5762 5766 5769 5769 5771 5772 5771 5766 5763 5761 5757 5753 5749 5744 5740 5737 5732 5727 5721 5716 5710 5705 5701 5696 5691 5686 5681 5676 5670 5666 5661 5655 5650 5646 5641
5705 5703 5715 5740 5755 5756 5750 5746 5758 5760 5764 5768 5768 5764 5763 5770 5770 5767 5764 5760 5755 5751 5745 5739 5734 5730 5724 5718 5712 5707 5703 5698 5694 5689 5683 5677 5671 5666 5662 5657 5651 5646 5642 5636
5701 5699 5701 5729 5751 5760 5752 5733 5751 5753 5755 5758 5756 5739 5747 5764 5767 5765 5763 5759 5754 5748 5742 5736 5732 5727 5720 5714 5708 5704 5701 5697 5692 5686 5680 5674 5669 5663 5658 5653 5648 5643 5638 5633
5696 5695 5708 5732 5746 5751 5723 5723 5742 5746 5748 5751 5746 5748 5757 5761 5761 5761 5758 5755 5751 5745 5739 5735 5730 5723 5715 5710 5705 5703 5699 5693 5688 5682 5676 5671 5665 5660 5654 5649 5643 5638 5633 5629
5690 5688 5699 5732 5736 5728 5725 5735 5739 5743 5746 5746 5747 5751 5754 5755 5754 5753 5750 5747 5744 5738 5733 5729 5724 5717 5709 5705 5704 5700 5694 5688 5682 5677 5672 5668 5660 5654 5649 5643 5637 5632 5627 5623
5696 5700 5717 5725 5729 5734 5733 5731 5736 5739 5743 5744 5741 5741 5743 5744 5744 5744 5742 5739 5736 5731 5725 5720 5717 5712 5705 5702 5698 5693 5687 5681 5676 5672 5666 5661 5655 5649 5643 5638 5631 5627 5621 5617
5698 5707 5714 5720 5726 5731 5733 5732 5734 5737 5737 5737 5734 5735 5734 5735 5734 5732 5731 5729 5726 5721 5715 5710 5707 5704 5700 5696 5690 5684 5678 5673 5669 5664 5659 5654 5649 5643 5638 5632 5627 5621 5616 5612
5694 5703 5708 5715 5721 5725 5727 5730 5731 5730 5729 5729 5728 5726 5725 5724 5723 5721 5720 5718 5715 5710 5705 5701 5698 5695 5691 5687 5683 5676 5670 5665 5661 5656 5651 5646 5642 5638 5634 5630 5625 5619 5614 5609
5695 5705 5703 5707 5715 5719 5717 5718 5720 5720 5719 5721 5721 5717 5717 5716 5714 5712 5709 5706 5702 5698 5695 5691 5689 5685 5682 5679 5674 5668 5662 5657 5653 5648 5644 5639 5635 5632 5631 5626 5622 5617 5611 5606
5709 5709 5706 5708 5710 5712 5710 5709 5711 5711 5710 5710 5711 5711 5709 5706 5703 5701 5698 5695 5691 5688 5685 5682 5679 5676 5673 5670 5665 5659 5654 5649 5645 5640 5635 5631 5627 5622 5620 5620 5617 5612 5607 5602
5708 5705 5698 5698 5699 5702 5703 5702 5701 5700 5701 5701 5701 5701 5698 5694 5691 5688 5685 5684 5682 5678 5674 5671 5669 5665 5663 5659 5654 5649 5645 5641 5636 5632 5627 5623 5619 5615 5611 5608 5605 5604 5602 5598
5695 5696 5691 5690 5690 5691 5691 5691 5688 5686 5686 5687 5688 5686 5684 5680 5677 5675 5674 5673 5670 5666 5662 5660 5656 5653 5652 5648 5643 5639 5634 5630 5627 5623 5619 5615 5611 5607 5604 5600 5597 5594 5592 5590
5683 5683 5681 5678 5676 5677 5678 5677 5674 5672 5673 5672 5672 5671 5669 5667 5665 5663 5661 5660 5656 5652 5649 5647 5644 5642 5640 5636 5632 5627 5623 5621 5618 5613 5609 5605 5602 5598 5595 5592 5589 5585 5582 5580
5670 5665 5665 5663 5662 5662 5663 5664 5662 5660 5660 5658 5657 5657 5655 5653 5651 5648 5646 5645 5643 5640 5638 5636 5633 5631 5628 5624 5620 5616 5612 5609 5608 5603 5598 5595 5592 5589 5586 5583 5580 5577 5575 5573
5664 5661 5659 5657 5654 5651 5651 5652 5651 5649 5648 5647 5646 5644 5642 5638 5635 5633 5632 5631 5629 5626 5624 5623 5621 5618 5615 5612 5608 5604 5600 5597 5594 5590 5587 5584 5581 5578 5575 5572 5570 5567 5565 5564
5655 5653 5651 5649 5646 5643 5641 5640 5639 5638 5637 5636 5633 5630 5628 5625 5623 5621 5620 5617 5614 5611 5610 5610 5608 5604 5601 5598 5596 5591 5587 5584 5581 5578 5575 5572 5569 5566 5563 5560 5558 5556 5555 5555
5643 5641 5639 5637 5636 5633 5630 5629 5628 5626 5625 5623 5620 5617 5614 5613 5611 5609 5606 5602 5600 5599 5598 5596 5593 5590 5587 5584 5582 5578 5574 5571 5567 5564 5561 5558 5555 5552 5550 5548 5547 5546 5545 5545
5629 5628 5626 5624 5622 5621 5620 5618 5616 5614 5613 5611 5608 5605 5602 5601 5599 5596 5592 5589 5589 5588 5586 5584 5579 5576 5573 5570 5568 5563 5560 5556 5553 5549 5546 5543 5541 5539 5537 5536 5535 5535 5536 5536
5616 5615 5614 5612 5610 5608 5608 5606 5605 5603 5601 5599 5597 5595 5591 5589 5587 5584 5581 5579 5578 5577 5573 5569 5566 5563 5560 5557 5552 5548 5545 5542 5539 5535 5532 5530 5527 5526 5525 5524 5524 5525 5526 5527
5605 5603 5602 5600 5599 5597 5596 5595 5594 5592 5590 5588 5585 5583 5580 5577 5574 5570 5567 5567 5565 5564 5560 5556 5553 5550 5547 5542 5538 5535 5531 5528 5525 5522 5519 5517 5515 5513 5513 5513 5513 5515 5517 5519
5593 5592 5591 5590 5588 5585 5582 5582 5581 5580 5578 5576 5574 5572 5569 5565 5562 5561 5559 5557 5554 5551 5546 5543 5540 5537 5534 5529 5525 5521 5517 5514 5511 5508 5506 5504 5503 5502 5502 5502 5504 5506 5508 5511
5582 5580 5579 5577 5574 5572 5571 5570 5568 5567 5565 5563 5562 5560 5557 5554 5551 5549 5547 5544 5542 5538 5534 5531 5528 5525 5520 5516 5512 5508 5504 5501 5498 5496 5495 5493 5493 5493 5493 5494 5495 5498 5500 5504
5570 5568 5566 5565 5563 5561 5560 5557 5554 5553 5551 5549 5547 5546 5544 5542 5539 5536 5533 5531 5528 5525 5520 5517 5514 5511 5506 5502 5499 5495 5492 5489 5487 5486 5485 5484 5484 5484 5485 5487 5489 5491 5493 5497
5558 5556 5554 5552 5552 5550 5548 5546 5543 5541 5539 5536 5534 5533 5531 5529 5526 5523 5521 5517 5514 5510 5507 5503 5500 5496 5493 5489 5486 5483 5481 5478 5477 5476 5475 5475 5476 5477 5479 5481 5482 5484 5487 5490